Temp
-19 -18 -17 -17 -17 -17 -17 -17 -17 -17 -16 -17 -16 -17 -16 -16 -15 -14 -15 -15 -14 -13 -13 -13 -13 -12 -12 -12 -11 -11 -11 -11 -11 -10 -10 -10 -10 -10 -10 -10 -10 -10 -10 -10
-19 -19 -19 -18 -18 -18 -18 -18 -17 -17 -17 -17 -17 -16 -17 -16 -15 -15 -15 -15 -15 -14 -13 -13 -13 -13 -13 -12 -12 -12 -11 -11 -11 -11 -11 -11 -10 -10 -10 -9 -10 -10 -10 -10
-19 -19 -19 -19 -18 -18 -18 -17 -18 -18 -17 -17 -17 -16 -16 -15 -15 -15 -14 -15 -14 -14 -13 -13 -13 -13 -13 -12 -12 -12 -12 -11 -11 -11 -11 -11 -11 -10 -10 -10 -10 -10 -10 -10
-19 -19 -19 -19 -19 -18 -18 -18 -18 -17 -17 -16 -17 -16 -16 -16 -14 -15 -15 -14 -15 -14 -13 -13 -13 -13 -12 -12 -12 -12 -12 -12 -12 -11 -11 -10 -10 -10 -10 -10 -11 -12 -12 -12
-19 -19 -19 -19 -18 -18 -18 -18 -17 -17 -17 -17 -16 -16 -15 -16 -15 -14 -15 -14 -14 -14 -14 -13 -14 -13 -13 -13 -12 -12 -12 -12 -11 -11 -11 -11 -10 -10 -10 -10 -11 -11 -11 -11
-19 -19 -19 -18 -18 -18 -18 -18 -18 -18 -17 -16 -17 -17 -15 -16 -15 -15 -15 -15 -14 -14 -14 -14 -14 -14 -14 -13 -13 -13 -13 -12 -12 -12 -11 -10 -10 -10 -10 -10 -11 -11 -12 -12
-19 -19 -19 -19 -18 -18 -18 -18 -18 -18 -17 -16 -17 -17 -15 -16 -15 -15 -16 -15 -15 -15 -14 -14 -14 -14 -14 -14 -13 -13 -12 -12 -12 -11 -11 -11 -11 -11 -11 -11 -11 -11 -11 -11
-19 -19 -19 -18 -18 -18 -19 -19 -18 -18 -17 -17 -18 -16 -15 -16 -16 -16 -16 -15 -15 -14 -15 -15 -14 -14 -14 -14 -13 -13 -12 -12 -12 -12 -11 -11 -11 -11 -11 -11 -11 -11 -11 -11
-19 -18 -18 -18 -19 -19 -18 -18 -18 -18 -18 -18 -17 -16 -16 -16 -16 -16 -16 -16 -16 -16 -16 -16 -15 -14 -14 -14 -13 -13 -13 -12 -12 -12 -12 -12 -12 -12 -12 -12 -12 -12 -12 -12
-19 -19 -19 -19 -19 -19 -18 -18 -19 -18 -18 -17 -17 -17 -16 -16 -17 -16 -16 -17 -17 -16 -16 -16 -15 -14 -14 -14 -13 -13 -13 -13 -12 -12 -12 -12 -12 -12 -12 -12 -12 -12 -12 -12
-19 -19 -19 -19 -18 -18 -18 -18 -18 -18 -18 -18 -18 -17 -17 -17 -17 -17 -18 -17 -17 -17 -16 -15 -15 -15 -14 -14 -14 -13 -13 -13 -13 -12 -12 -12 -12 -12 -12 -12 -12 -12 -12 -12
-19 -19 -18 -18 -18 -18 -18 -18 -18 -18 -18 -17 -18 -18 -18 -18 -17 -17 -17 -18 -18 -18 -17 -16 -15 -15 -15 -14 -14 -14 -13 -13 -13 -13 -13 -12 -12 -12 -12 -13 -13 -12 -13 -13
-19 -18 -18 -18 -18 -17 -17 -17 -18 -18 -18 -17 -18 -17 -18 -18 -18 -17 -17 -18 -18 -18 -17 -16 -16 -15 -15 -15 -15 -14 -14 -13 -13 -13 -13 -13 -13 -13 -13 -13 -13 -13 -13 -13
-19 -18 -18 -18 -18 -18 -18 -18 -18 -18 -17 -17 -17 -18 -18 -18 -18 -18 -18 -18 -18 -18 -18 -17 -17 -16 -15 -15 -15 -14 -14 -14 -14 -13 -13 -13 -13 -13 -13 -13 -13 -13 -13 -13
-19 -19 -18 -18 -18 -18 -18 -17 -17 -17 -18 -17 -17 -17 -18 -18 -18 -18 -18 -18 -18 -17 -17 -16 -16 -16 -15 -15 -15 -15 -14 -14 -14 -14 -14 -14 -14 -14 -14 -13 -13 -13 -13 -13
-19 -19 -19 -19 -19 -18 -18 -18 -17 -18 -17 -17 -17 -17 -18 -18 -18 -18 -19 -18 -18 -17 -17 -16 -16 -16 -16 -15 -15 -15 -15 -14 -14 -14 -14 -14 -14 -14 -14 -14 -14 -14 -14 -14
-19 -19 -19 -19 -19 -19 -18 -19 -18 -18 -18 -18 -17 -18 -17 -18 -18 -18 -18 -18 -17 -17 -17 -17 -16 -16 -16 -16 -15 -15 -15 -14 -14 -15 -15 -15 -15 -14 -14 -14 -14 -14 -14 -14
-20 -20 -20 -19 -19 -18 -19 -19 -19 -18 -18 -18 -18 -18 -17 -18 -18 -18 -18 -18 -18 -17 -18 -17 -16 -16 -16 -16 -15 -15 -15 -15 -15 -15 -15 -15 -15 -15 -15 -15 -15 -15 -15 -14
-20 -20 -20 -20 -20 -19 -19 -19 -19 -19 -19 -19 -18 -18 -18 -18 -18 -18 -18 -18 -18 -17 -17 -17 -16 -16 -16 -16 -16 -16 -16 -15 -15 -15 -15 -15 -15 -15 -15 -15 -15 -15 -15 -15
-20 -20 -20 -20 -20 -20 -20 -19 -19 -19 -19 -19 -19 -18 -18 -18 -18 -18 -18 -18 -18 -17 -17 -17 -17 -17 -17 -16 -16 -16 -16 -16 -15 -15 -15 -16 -16 -15 -15 -16 -16 -16 -16 -16
-20 -20 -20 -20 -20 -20 -20 -19 -19 -20 -19 -19 -19 -18 -18 -18 -18 -18 -18 -17 -17 -17 -17 -17 -17 -17 -17 -17 -16 -16 -16 -16 -16 -16 -16 -16 -16 -16 -16 -16 -16 -17 -17 -16
-20 -20 -20 -20 -19 -19 -19 -19 -19 -19 -19 -19 -19 -18 -18 -18 -18 -18 -18 -18 -18 -17 -18 -17 -17 -17 -17 -17 -17 -17 -16 -16 -16 -16 -17 -17 -16 -17 -17 -17 -17 -17 -17 -17
-20 -20 -20 -20 -20 -20 -19 -19 -19 -19 -19 -20 -19 -19 -18 -18 -18 -18 -18 -18 -18 -18 -18 -18 -17 -17 -17 -17 -17 -17 -17 -17 -17 -17 -17 -17 -17 -17 -17 -17 -17 -17 -17 -17
-20 -20 -20 -20 -20 -20 -20 -20 -19 -19 -19 -19 -19 -19 -19 -18 -18 -18 -18 -18 -19 -18 -18 -18 -18 -18 -18 -18 -17 -17 -17 -17 -17 -17 -17 -17 -17 -17 -18 -18 -19 -18 -18 -18
-21 -20 -20 -20 -20 -20 -20 -20 -19 -19 -19 -19 -19 -19 -18 -18 -18 -18 -18 -18 -19 -19 -19 -18 -18 -18 -18 -18 -17 -17 -17 -17 -17 -17 -17 -18 -18 -18 -18 -18 -18 -18 -18 -18
-21 -21 -20 -20 -19 -19 -20 -20 -20 -19 -19 -19 -19 -19 -19 -18 -18 -18 -18 -18 -18 -19 -19 -19 -18 -18 -18 -18 -18 -18 -18 -18 -18 -18 -18 -18 -18 -18 -18 -18 -18 -18 -18 -18
Height
5651 5661 5671 5678 5684 5692 5701 5707 5712 5717 5724 5728 5733 5736 5740 5748 5753 5762 5767 5772 5777 5783 5789 5795 5799 5803 5807 5812 5817 5821 5823 5824 5824 5825 5827 5829 5832 5833 5833 5833 5832 5832 5831 5830
5652 5661 5669 5676 5683 5691 5698 5703 5708 5712 5717 5721 5726 5731 5734 5741 5749 5756 5761 5765 5770 5776 5783 5789 5794 5798 5801 5804 5808 5811 5814 5816 5819 5820 5821 5822 5823 5824 5825 5826 5825 5825 5824 5823
5655 5663 5666 5674 5680 5687 5693 5699 5705 5710 5713 5718 5720 5725 5730 5738 5742 5749 5755 5759 5763 5769 5775 5781 5785 5790 5794 5797 5799 5802 5804 5807 5811 5814 5816 5817 5817 5817 5816 5815 5814 5814 5813 5812
5653 5660 5666 5673 5678 5684 5690 5695 5700 5705 5708 5715 5717 5722 5727 5732 5737 5742 5749 5754 5757 5762 5767 5773 5778 5782 5786 5789 5792 5796 5798 5800 5802 5804 5805 5807 5809 5810 5810 5810 5809 5807 5805 5803
5655 5660 5666 5672 5678 5683 5688 5693 5698 5700 5703 5708 5711 5715 5724 5723 5729 5740 5744 5748 5751 5755 5759 5764 5769 5774 5778 5781 5784 5787 5789 5791 5793 5795 5797 5798 5798 5799 5798 5799 5799 5798 5797 5795
5655 5660 5665 5671 5675 5681 5685 5690 5693 5695 5697 5700 5706 5707 5714 5718 5728 5729 5736 5740 5743 5747 5752 5757 5762 5765 5769 5772 5776 5778 5781 5783 5785 5786 5787 5788 5789 5789 5789 5790 5790 5789 5788 5787
5654 5659 5664 5670 5674 5677 5681 5685 5688 5690 5690 5693 5697 5699 5710 5711 5716 5722 5726 5730 5735 5739 5744 5749 5754 5758 5761 5764 5767 5770 5772 5774 5775 5777 5778 5779 5779 5780 5780 5780 5779 5779 5779 5778
5656 5661 5664 5668 5671 5676 5678 5681 5684 5684 5687 5693 5692 5693 5702 5705 5708 5713 5718 5723 5727 5731 5735 5740 5746 5750 5752 5755 5759 5762 5764 5765 5767 5769 5770 5770 5770 5771 5771 5771 5771 5770 5769 5768
5655 5658 5661 5664 5668 5672 5675 5676 5681 5681 5684 5686 5686 5688 5691 5696 5700 5706 5711 5716 5720 5724 5727 5732 5737 5741 5744 5748 5751 5753 5755 5757 5758 5759 5760 5760 5761 5761 5761 5761 5761 5760 5759 5758
5653 5654 5656 5660 5663 5667 5670 5673 5673 5676 5679 5679 5680 5680 5683 5689 5694 5699 5705 5709 5713 5717 5721 5724 5728 5732 5736 5739 5742 5744 5746 5747 5748 5750 5751 5751 5751 5751 5751 5751 5751 5750 5749 5749
5650 5653 5656 5657 5660 5665 5665 5667 5669 5674 5676 5675 5673 5675 5678 5684 5688 5693 5697 5698 5702 5706 5711 5715 5720 5724 5727 5730 5732 5734 5737 5738 5739 5740 5741 5741 5742 5741 5741 5741 5741 5740 5740 5739
5648 5650 5651 5654 5656 5659 5661 5664 5667 5669 5672 5670 5668 5670 5673 5678 5682 5686 5690 5693 5696 5699 5703 5707 5711 5714 5718 5721 5723 5725 5727 5729 5730 5730 5731 5732 5732 5732 5732 5732 5732 5732 5731 5731
5647 5648 5650 5650 5653 5653 5656 5659 5661 5663 5665 5665 5665 5667 5668 5673 5677 5680 5683 5686 5689 5692 5696 5700 5703 5706 5709 5711 5713 5715 5718 5719 5720 5720 5721 5722 5722 5723 5723 5723 5724 5724 5723 5722
5644 5645 5647 5648 5649 5650 5652 5654 5656 5657 5658 5661 5661 5664 5666 5667 5670 5673 5676 5679 5681 5684 5687 5691 5694 5696 5698 5701 5703 5706 5708 5709 5710 5711 5712 5712 5713 5713 5714 5714 5714 5714 5714 5713
5640 5641 5641 5641 5643 5644 5646 5647 5649 5652 5655 5654 5658 5657 5660 5663 5664 5667 5669 5671 5674 5677 5680 5683 5685 5687 5689 5692 5694 5696 5698 5700 5701 5702 5703 5704 5704 5705 5705 5705 5706 5706 5705 5705
5635 5637 5637 5637 5638 5638 5640 5642 5644 5646 5648 5649 5651 5652 5655 5657 5659 5662 5664 5665 5668 5670 5673 5675 5678 5680 5681 5684 5686 5688 5689 5691 5693 5694 5695 5695 5696 5696 5697 5697 5698 5697 5697 5697
5630 5631 5632 5633 5633 5633 5634 5637 5638 5640 5642 5644 5643 5650 5648 5652 5654 5657 5659 5660 5662 5664 5666 5669 5671 5673 5675 5676 5679 5681 5682 5683 5684 5685 5686 5687 5688 5689 5689 5689 5688 5689 5689 5688
5624 5625 5625 5627 5627 5627 5631 5632 5633 5635 5637 5637 5640 5642 5642 5647 5649 5651 5652 5655 5657 5659 5661 5664 5665 5667 5669 5670 5671 5673 5674 5675 5676 5678 5678 5680 5680 5682 5682 5682 5681 5681 5680 5680
5617 5618 5619 5620 5622 5626 5626 5626 5627 5628 5631 5632 5635 5635 5637 5641 5643 5645 5648 5650 5652 5654 5656 5657 5659 5659 5661 5663 5664 5666 5667 5669 5670 5671 5671 5672 5674 5674 5674 5673 5674 5673 5672 5671
5611 5612 5613 5615 5617 5619 5621 5621 5622 5624 5626 5628 5629 5631 5633 5635 5638 5640 5643 5645 5646 5648 5649 5651 5652 5653 5655 5657 5659 5660 5661 5662 5663 5664 5665 5665 5665 5665 5665 5666 5666 5665 5665 5665
5605 5607 5609 5609 5611 5615 5616 5616 5619 5621 5625 5623 5624 5626 5629 5631 5632 5635 5637 5639 5640 5642 5643 5645 5646 5648 5649 5651 5653 5654 5655 5655 5656 5657 5657 5657 5657 5658 5658 5658 5658 5658 5659 5658
5600 5601 5604 5606 5607 5610 5611 5613 5616 5616 5617 5619 5621 5622 5624 5626 5629 5631 5632 5633 5635 5636 5638 5640 5641 5642 5644 5645 5647 5648 5649 5649 5648 5648 5649 5649 5650 5650 5651 5651 5651 5651 5652 5651
5595 5597 5599 5602 5604 5605 5606 5608 5609 5611 5613 5615 5617 5619 5621 5622 5625 5626 5627 5628 5630 5631 5633 5634 5636 5637 5639 5640 5641 5642 5642 5643 5642 5642 5642 5643 5643 5644 5644 5644 5644 5645 5645 5644
5588 5589 5592 5595 5598 5599 5601 5603 5605 5607 5609 5611 5613 5615 5617 5618 5620 5620 5622 5623 5625 5627 5628 5630 5631 5633 5634 5635 5636 5636 5637 5637 5636 5636 5637 5638 5638 5638 5638 5638 5638 5638 5638 5637
5581 5583 5586 5589 5590 5592 5595 5596 5599 5601 5603 5606 5608 5610 5611 5613 5614 5615 5616 5618 5619 5621 5622 5624 5626 5627 5628 5629 5630 5630 5630 5631 5631 5631 5632 5632 5632 5632 5632 5632 5632 5632 5631 5630
5574 5577 5579 5582 5584 5586 5588 5590 5592 5594 5597 5599 5601 5603 5605 5607 5608 5610 5611 5612 5613 5614 5616 5617 5619 5620 5621 5622 5623 5624 5625 5625 5625 5626 5626 5626 5625 5625 5625 5625 5625 5625 5624 5622
Wind_Speed
32 32 32 39 39 36 34 33 34 30 35 39 40 39 41 41 42 38 42 47 50 48 47 45 44 44 43 41 39 38 37 36 38 39 38 37 34 35 34 35 35 36 38 38
41 29 28 33 36 32 31 32 31 35 33 33 42 42 43 43 40 40 37 46 45 49 49 47 44 42 41 40 38 38 40 41 39 38 38 37 37 37 37 37 39 41 40 41
39 33 26 32 32 33 31 28 29 28 33 33 33 42 45 47 44 41 40 37 45 47 49 48 46 44 42 41 42 42 41 40 39 39 38 37 37 38 40 43 44 44 43 42
37 38 26 28 30 30 30 30 28 28 30 32 32 32 37 44 45 42 37 39 39 43 47 48 49 46 44 43 42 40 39 38 38 38 40 41 40 41 42 43 43 42 42 43
36 33 32 22 25 28 25 27 28 25 26 29 35 38 35 45 47 44 40 36 39 40 42 45 47 48 44 44 45 43 42 40 39 40 40 41 40 41 41 41 40 40 41 41
32 30 29 25 24 25 22 25 25 26 29 32 28 34 40 40 41 42 40 42 40 40 39 39 39 41 45 46 48 49 50 47 47 44 44 40 38 37 38 40 40 40 40 41
29 29 26 23 26 29 30 28 29 30 32 32 32 32 29 38 43 41 40 38 45 43 40 37 37 37 38 40 40 40 40 40 40 39 37 37 38 40 40 41 41 42 43 43
27 24 25 27 28 25 25 27 31 32 30 24 31 36 27 33 41 39 37 37 42 45 48 44 40 36 38 38 38 38 37 36 36 37 39 40 40 41 42 41 42 43 42 41
24 26 37 34 28 26 25 28 27 31 24 19 23 29 34 33 37 38 36 34 32 32 39 41 40 39 36 36 36 37 37 37 38 39 40 40 41 41 42 42 41 40 40 39
19 17 30 39 32 28 26 22 30 30 29 28 29 25 28 32 32 35 34 32 31 31 32 37 38 37 37 37 36 37 37 38 40 40 41 41 42 42 41 41 39 38 38 38
16 18 21 28 32 28 28 28 36 35 32 29 27 24 25 28 31 33 33 36 38 39 37 36 36 39 40 39 40 41 42 42 42 43 43 42 42 40 39 39 38 37 37 36
14 14 18 24 26 28 29 24 27 31 28 24 22 20 20 24 27 30 31 34 32 33 40 38 37 36 36 38 40 40 40 39 39 39 38 38 38 38 36 35 36 36 34 34
12 11 12 14 21 27 30 30 30 28 27 26 21 10 19 22 23 24 24 31 34 34 34 35 37 38 40 41 40 39 37 37 39 38 38 36 34 34 34 34 34 34 34 34
16 17 17 16 17 21 25 28 32 31 29 22 26 18 16 18 19 22 23 26 28 31 33 35 37 40 40 43 44 44 42 41 40 37 35 35 33 32 33 32 32 33 33 32
16 17 19 20 21 22 22 23 28 31 24 23 20 25 23 21 23 23 24 25 25 29 31 32 32 31 32 34 34 35 37 36 34 33 32 31 31 31 31 31 31 31 30 30
19 18 21 22 23 25 27 27 22 24 28 27 22 22 20 21 19 16 15 21 21 23 26 26 24 24 25 26 25 27 28 28 29 29 30 29 29 29 29 29 30 30 29 29
20 19 20 22 24 25 28 24 27 27 27 28 30 20 24 22 23 23 24 25 21 21 21 21 22 23 24 24 25 26 26 27 27 28 27 26 26 27 27 28 27 28 29 30
21 21 20 18 23 25 19 22 25 26 27 30 27 26 28 20 19 23 24 23 23 24 21 23 23 23 24 24 24 25 24 24 25 26 26 26 25 25 27 28 27 28 28 28
20 24 25 24 22 19 18 20 22 24 23 23 25 27 25 20 19 21 22 21 22 22 23 23 23 22 22 24 24 23 23 24 25 26 27 28 29 28 27 27 27 27 26 26
20 20 22 22 21 19 15 17 18 20 19 17 18 19 18 17 17 20 18 20 21 21 21 21 20 20 21 22 24 24 25 25 26 25 24 25 26 25 24 25 24 25 25 24
18 18 18 21 19 15 15 18 16 17 17 16 16 15 15 17 19 18 20 19 18 18 19 19 20 20 21 22 24 25 25 26 26 26 27 26 24 24 24 26 26 26 26 25
17 21 16 19 18 18 17 16 15 17 17 19 15 16 18 19 19 21 21 20 21 20 20 19 19 20 20 20 20 19 20 19 18 17 19 21 24 25 26 25 23 23 23 23
18 19 21 18 16 16 17 16 17 17 18 17 18 17 16 17 20 20 18 20 19 19 19 20 21 20 19 18 17 17 17 17 15 15 17 19 19 18 19 20 20 21 21 21
22 21 19 21 21 20 19 16 16 16 17 19 19 19 17 16 17 17 18 18 18 19 18 19 20 20 19 17 16 16 18 18 15 14 15 16 18 19 19 21 20 21 21 21
28 25 21 20 22 22 22 23 22 22 20 19 19 19 19 18 17 16 17 19 21 20 19 19 19 19 19 18 18 18 18 18 17 16 17 18 18 19 20 21 21 22 22 22
26 26 25 22 22 22 24 23 23 23 24 25 24 24 23 23 23 22 21 21 22 23 21 21 20 21 21 20 20 20 19 19 18 18 19 20 20 21 20 20 21 22 24 26
Wind_Direction
177 192 200 200 205 207 208 214 219 225 227 228 222 222 223 224 230 225 229 225 225 225 223 223 228 233 235 237 238 237 239 245 252 256 259 260 261 266 270 272 275 277 280 280
190 188 193 198 204 209 208 211 213 220 226 226 227 228 224 225 227 225 232 228 226 227 228 227 227 231 237 241 243 243 242 240 243 251 259 266 270 272 273 272 273 276 277 278
192 195 192 197 202 205 210 212 219 224 226 231 230 230 229 228 224 227 227 230 231 232 229 229 229 230 233 237 240 242 246 251 250 248 251 259 266 271 275 279 282 282 281 283
191 189 194 195 200 206 210 212 217 221 225 226 233 236 234 232 227 225 227 230 232 231 232 231 232 232 233 236 241 244 245 249 256 260 263 266 267 268 268 269 270 272 275 279
193 201 204 202 206 209 207 216 221 229 235 231 231 236 228 231 231 224 231 231 232 232 232 232 232 234 235 237 241 246 250 254 258 262 264 266 267 268 268 269 270 272 274 277
188 196 194 197 199 204 207 217 225 235 242 241 239 238 225 231 228 230 228 231 233 233 233 234 233 234 237 241 245 249 253 256 256 258 264 264 267 265 267 269 271 272 275 276
195 185 203 219 226 216 209 215 224 233 239 242 240 249 230 223 225 226 225 226 229 236 236 233 234 234 235 237 239 242 246 249 250 253 256 260 263 265 269 270 271 272 272 273
200 206 202 208 207 208 216 222 234 240 248 260 258 251 239 223 223 224 224 228 226 231 236 236 237 238 239 240 240 241 242 246 250 253 256 260 262 263 265 267 268 269 272 274
210 218 213 209 211 214 220 229 238 245 247 254 263 256 241 224 221 222 224 223 220 222 226 228 234 237 240 240 240 240 243 248 252 255 257 260 262 264 265 267 269 271 272 273
207 204 211 214 223 225 232 237 244 234 246 261 269 260 245 221 222 224 226 225 226 228 232 229 232 234 236 238 241 242 246 250 254 256 259 261 263 265 267 268 270 270 271 273
207 208 203 215 227 233 239 238 229 232 245 270 274 261 236 226 229 232 234 232 228 222 228 232 235 235 238 241 245 249 251 252 255 257 258 260 262 264 266 267 268 270 272 275
190 204 217 221 228 231 227 225 217 234 248 262 273 256 232 230 234 238 237 240 239 239 230 235 240 242 244 245 246 247 251 252 255 258 260 260 262 264 265 266 267 267 267 271
205 218 223 221 220 218 225 233 239 236 241 251 258 257 236 232 237 241 240 239 239 239 238 239 241 242 244 246 249 248 253 256 262 265 265 266 264 261 261 261 263 264 269 273
223 230 230 230 223 222 226 234 234 239 241 258 248 248 243 246 235 233 232 234 235 237 240 242 245 247 248 250 253 254 257 261 264 264 260 258 258 259 261 260 262 266 267 270
234 231 235 237 236 235 236 239 240 240 243 247 243 248 253 254 250 237 237 230 231 234 238 243 246 247 247 248 252 253 255 255 255 255 255 256 258 259 259 261 263 264 266 267
239 237 238 237 238 236 233 235 235 232 233 243 244 245 243 241 236 224 232 239 231 233 236 240 244 245 246 246 246 246 247 248 250 252 254 256 257 258 260 263 263 263 265 268
235 237 242 238 241 242 240 244 240 233 232 237 240 248 238 228 233 234 228 235 235 239 242 244 245 246 248 249 248 248 249 250 251 253 254 254 258 262 265 265 265 264 267 273
245 245 244 241 240 243 245 243 249 248 242 245 249 250 252 250 238 229 237 237 239 237 242 247 244 246 248 250 250 251 250 251 251 252 254 255 257 261 265 263 265 269 275 277
247 251 250 243 242 245 239 240 246 250 250 252 247 249 254 252 236 223 231 234 239 240 238 243 247 249 252 251 251 253 254 252 252 251 254 258 260 264 267 268 269 273 274 273
246 244 238 238 243 245 245 239 243 247 248 252 247 243 245 236 232 231 232 238 241 243 245 248 252 254 253 251 251 254 253 253 254 255 255 258 259 263 265 264 269 273 267 270
243 234 238 237 239 239 236 238 240 233 233 237 236 232 228 233 235 238 236 245 248 249 251 249 251 252 252 252 252 254 255 255 255 257 257 259 259 260 260 264 272 266 267 271
249 233 236 234 238 232 230 229 232 229 229 225 230 229 230 233 242 240 238 240 246 250 248 247 249 250 249 247 246 249 252 252 256 261 262 261 262 264 267 265 265 264 266 270
241 233 228 231 229 228 232 228 228 229 229 230 235 233 243 240 240 240 239 241 243 245 247 244 242 239 239 240 246 252 255 253 254 259 261 262 263 261 262 263 262 264 266 273
234 237 235 237 238 237 237 234 233 232 231 230 232 237 239 240 244 247 245 242 239 242 245 244 243 241 241 246 249 256 257 255 253 256 263 268 265 262 259 258 262 265 268 275
230 236 238 239 239 239 239 241 239 238 238 238 238 242 245 245 250 255 255 251 245 242 245 245 244 243 244 252 257 260 255 254 254 255 259 261 263 265 265 265 263 266 271 278
231 232 236 238 243 242 241 241 243 244 244 244 243 244 247 249 252 257 259 258 253 246 247 248 249 249 248 253 257 258 257 255 259 259 262 265 263 263 262 262 266 272 277 283